Regional Weather Roundup
Issued by NWS

Home | Current Version | Previous Version | Graphics & Text | Print | Product List | Glossary On
Versions: 1 2 3 4 5 6 7 8 9 10 11 12 13 14 15 16 17 18 19 20 21 22 23 24 25 26 27 28 29 30 31 32 33 34 35 36 37 38 39 40 41 42 43 44 45 46 47 48 49 50
000
ASUS45 KABQ 281210
RWRNM
NEW MEXICO REGIONAL WEATHER ROUNDUP
NATIONAL WEATHER SERVICE ALBUQUERQUE NM
600 AM MDT THU JUL 28 2016

NOTE: "FAIR" MEANS FEW OR NO CLOUDS BELOW 12,000 FEET AGL WITH NO
       SIGNIFICANT WEATHER OR OBSTRUCTIONS TO VISION.

      THIS PRODUCT IS RELEASED AS TWO VERSIONS.  ONE VERSION NEAR
      THE TOP OF THE HOUR CONTAINING PRELIMINARY DATA FROM ALBUQUERQUE
      AND OTHER STATIONS.  A FINAL VERSION WITH ADDITIONAL DATA IS
      ISSUED ABOUT 10 MINUTES AFTER THE HOUR.

NMZ501-503-504-510>518-281300-
NORTHWEST PLATEAU/NORTHCENTRAL MOUNTAINS

CITY           SKY/WX    TMP DP  RH WIND       PRES   REMARKS
FARMINGTON     FAIR      71  44  37 E9        30.18R
6HR MIN TEMP:  71; 6HR MAX TEMP:  80;

LOS ALAMOS     FAIR      64  51  62 SW7       30.38S
SANTA FE       FAIR      65  51  60 SE6       30.31S
6HR MIN TEMP:  65; 6HR MAX TEMP:  74;

TAOS           FAIR      57  34  41 CALM      30.40R
ANGEL FIRE     FAIR      46  44  94 CALM      30.49R

$$
NMZ402-403-502-505>509-281300-
WESTCENTRAL MOUNTAINS/SOUTHWEST MOUNTAINS

CITY           SKY/WX    TMP DP  RH WIND       PRES   REMARKS
GALLUP         FAIR      64  45  49 CALM      30.27R
6HR MIN TEMP:  59; 6HR MAX TEMP:  74;

GRANTS         FAIR      64  50  58 S6        30.32R
SILVER CITY    FAIR      63  56  77 NW10      30.20S

$$
NMZ407-409-411-412-281300-
SOUTHERN DESERTS

CITY           SKY/WX    TMP DP  RH WIND       PRES   REMARKS
LORDSBURG      FAIR      68  54  60 S5        30.12S
DEMING         FAIR      68  55  63 CALM      30.10F
6HR MIN TEMP:  68; 6HR MAX TEMP:  77;

LAS CRUCES     FAIR      69  54  57 NW5       30.13R
HOLLOMAN AFB   FAIR      69  56  61 N7        30.10R
ALAMOGORDO     FAIR      72  55  56 N7        30.13R
T OR C         FAIR      68  56  65 NW5       30.17R
6HR MIN TEMP:  68; 6HR MAX TEMP:  73;


$$
NMZ519>523-281300-
CENTRAL VALLEYS/CENTRAL HIGHLANDS

CITY           SKY/WX    TMP DP  RH WIND       PRES   REMARKS
ALBUQUERQUE    FAIR      71  52  50 N7        30.24R
6HR MIN TEMP:  71; 6HR MAX TEMP:  79;

DOUBLE EAGLE   PTCLDY    61  54  77 N5        30.27S
MORIARTY ARPT  FAIR      54  50  86 NW5       30.33R
6HR MIN TEMP:  54; 6HR MAX TEMP:  65;

CLINES CORNERS FAIR      58  53  84 N6        30.38R
6HR MIN TEMP:  57; 6HR MAX TEMP:  64;

BELEN          FAIR      67  49  52 CALM      30.22R
6HR MIN TEMP:  65; 6HR MAX TEMP:  75;

SOCORRO        FAIR      66  56  71 SW7       30.19S
6HR MIN TEMP:  64; 6HR MAX TEMP:  73;


$$
NMZ524>526-539-540-281300-
SOUTHCENTRAL MOUNTAINS

CITY           SKY/WX    TMP DP  RH WIND       PRES   REMARKS
RUIDOSO          N/A     59  52  77 W6        30.35R

$$
NMZ527>531-281300-
NORTHEAST HIGHLANDS/NORTHEAST PLAINS

CITY           SKY/WX    TMP DP  RH WIND       PRES   REMARKS
LAS VEGAS      FAIR      57  51  80 SW7       30.35S
6HR MIN TEMP:  54; 6HR MAX TEMP:  64;

RATON          FAIR      55  52  89 NE6       30.30S
CLAYTON        FAIR      63  58  83 S7        30.21R
6HR MIN TEMP:  63; 6HR MAX TEMP:  67;


$$
NMZ532>537-281300-
EASTCENTRAL PLAINS

CITY           SKY/WX    TMP DP  RH WIND       PRES   REMARKS
TUCUMCARI      FAIR      63  57  81 CALM      30.17R
6HR MIN TEMP:  62; 6HR MAX TEMP:  72;

CANNON AFB     FAIR      62  58  87 NW7       30.17R
6HR MIN TEMP:  62; 6HR MAX TEMP:  69;

CLOVIS AIRPORT FAIR      63  54  72 NW6       30.16R

$$
NMZ028-029-538-281300-
SOUTHEAST PLAINS

CITY           SKY/WX    TMP DP  RH WIND       PRES   REMARKS
ROSWELL        FAIR      70  58  65 N6        30.11R
6HR MIN TEMP:  70; 6HR MAX TEMP:  78;

ARTESIA        FAIR      70  61  73 N5        30.11R
CARLSBAD       FAIR      71  61  70 NW7       30.07R
6HR MIN TEMP:  71; 6HR MAX TEMP:  81;

HOBBS          CLEAR     66  64  94 N3        30.12R


$$




USA.gov is the U.S. government's official web portal to all federal, state and local government web resources and services.